| time (UTC) | temp F | wind direction | speed knots | gust knots | rain 1hr in | rain 24hr in | rain mn in | humidity % | barometer mb |
| 20260505092519 | 56 | 100 | 2.6 | 5.2 | 0.00 | 0.00 | 0.00 | 65 | 855.8 |
| 20260505091519 | 56 | 94 | 1.7 | 4.3 | 0.00 | 0.00 | 0.00 | 65 | 855.8 |
| 20260505090528 | 56 | 95 | 1.7 | 4.3 | 0.00 | 0.00 | 0.00 | 64 | 855.8 |
| 20260505085519 | 57 | 111 | 2.6 | 5.2 | 0.00 | 0.00 | 0.00 | 64 | 855.8 |
| 20260505084520 | 58 | 227 | 1.7 | 4.3 | 0.00 | 0.00 | 0.00 | 62 | 855.9 |
| 20260505083517 | 59 | 97 | 0.9 | 2.6 | 0.00 | 0.00 | 0.00 | 59 | 856.0 |
| 20260505082517 | 60 | 129 | 1.7 | 5.2 | 0.00 | 0.00 | 0.00 | 57 | 856.1 |
| 20260505081517 | 60 | 207 | 0.9 | 3.5 | 0.00 | 0.00 | 0.00 | 56 | 856.1 |
| 20260505080521 | 60 | 68 | 2.6 | 7.0 | 0.00 | 0.00 | 0.00 | 56 | 856.1 |
| 20260505075518 | 61 | 41 | 2.6 | 5.2 | 0.00 | 0.00 | 0.00 | 55 | 856.1 |
| 20260505074518 | 61 | 247 | 1.7 | 4.3 | 0.00 | 0.00 | 0.00 | 55 | 856.1 |
| 20260505073519 | 60 | 257 | 1.7 | 7.8 | 0.00 | 0.00 | 0.00 | 55 | 856.1 |
| 20260505072539 | 60 | 221 | 1.7 | 4.3 | 0.00 | 0.00 | 0.00 | 55 | 856.1 |
| 20260505071519 | 61 | 257 | 1.7 | 5.2 | 0.00 | 0.00 | 0.00 | 55 | 856.1 |
| 20260505070519 | 61 | 240 | 3.5 | 7.8 | 0.00 | 0.00 | 0.00 | 54 | 856.1 |
| 20260505065519 | 61 | 232 | 2.6 | 7.0 | 0.00 | 0.00 | 0.00 | 54 | 856.1 |
| 20260505064519 | 61 | 240 | 2.6 | 8.7 | 0.00 | 0.00 | 0.00 | 54 | 856.1 |
| 20260505063520 | 61 | 241 | 2.6 | 5.2 | 0.00 | 0.00 | 0.00 | 54 | 856.1 |
| 20260505062520 | 61 | 245 | 2.6 | 11.3 | 0.00 | 0.00 | 0.00 | 53 | 856.1 |
| 20260505061520 | 61 | 243 | 3.5 | 11.3 | 0.00 | 0.00 | 0.00 | 53 | 856.1 |
| 20260505060520 | 61 | 218 | 2.6 | 9.6 | 0.00 | 0.00 | 0.00 | 53 | 856.1 |
| 20260505055517 | 61 | 239 | 2.6 | 7.0 | 0.00 | 0.00 | 0.00 | 53 | 856.1 |
| 20260505054517 | 62 | 241 | 1.7 | 6.1 | 0.00 | 0.00 | 0.00 | 52 | 856.2 |
| 20260505053521 | 62 | 232 | 3.5 | 8.7 | 0.00 | 0.00 | 0.00 | 52 | 856.2 |
| 20260505052517 | 62 | 228 | 2.6 | 7.0 | 0.00 | 0.00 | 0.00 | 52 | 856.2 |
| 20260505051518 | 62 | 255 | 2.6 | 10.4 | 0.00 | 0.00 | 0.00 | 52 | 856.2 |
| 20260505050518 | 62 | 233 | 2.6 | 7.8 | 0.00 | 0.00 | 0.00 | 52 | 856.2 |
| 20260505041519 | 62 | 230 | 2.6 | 7.0 | 0.00 | 0.00 | 0.00 | 52 | 856.2 |
| 20260505040519 | 62 | 222 | 1.7 | 4.3 | 0.00 | 0.00 | 0.00 | 52 | 856.2 |
| 20260505035519 | 62 | 220 | 2.6 | 7.8 | 0.00 | 0.00 | 0.00 | 52 | 856.2 |
| 20260505034519 | 62 | 221 | 3.5 | 7.8 | 0.00 | 0.00 | 0.00 | 52 | 856.2 |
| 20260505033539 | 62 | 241 | 3.5 | 10.4 | 0.00 | 0.00 | 0.00 | 51 | 856.2 |
| 20260505032517 | 62 | 249 | 1.7 | 7.8 | 0.00 | 0.00 | 0.00 | 52 | 856.2 |
| 20260505031520 | 62 | 244 | 2.6 | 7.0 | 0.00 | 0.00 | 0.00 | 51 | 856.2 |
| 20260505030520 | 61 | 281 | 1.7 | 3.5 | 0.00 | 0.00 | 0.00 | 52 | 856.1 |
| 20260505025540 | 62 | 290 | 0.9 | 2.6 | 0.00 | 0.00 | 0.00 | 50 | 856.2 |
| 20260505024518 | 62 | 243 | 2.6 | 7.0 | 0.00 | 0.00 | 0.00 | 50 | 856.2 |
| 20260505023518 | 61 | 226 | 1.7 | 7.0 | 0.00 | 0.00 | 0.00 | 50 | 856.1 |
| 20260505022521 | 60 | 247 | 1.7 | 4.3 | 0.00 | 0.00 | 0.00 | 52 | 856.0 |
| 20260505021518 | 60 | 292 | 1.7 | 3.5 | 0.00 | 0.00 | 0.00 | 52 | 856.0 |
| 20260505020538 | 60 | 278 | 0.9 | 3.5 | 0.00 | 0.00 | 0.00 | 50 | 856.1 |
| 20260505015518 | 60 | 268 | 1.7 | 5.2 | 0.00 | 0.00 | 0.00 | 51 | 856.0 |
| 20260505014539 | 60 | 276 | 0.9 | 3.5 | 0.00 | 0.00 | 0.00 | 51 | 856.0 |
| 20260505013518 | 60 | 274 | 0.9 | 3.5 | 0.00 | 0.00 | 0.00 | 50 | 856.1 |
| 20260505012519 | 60 | 299 | 0.9 | 2.6 | 0.00 | 0.00 | 0.00 | 50 | 856.0 |
| 20260505011519 | 61 | 267 | 1.7 | 3.5 | 0.00 | 0.00 | 0.00 | 50 | 856.1 |
| 20260505010519 | 62 | 5 | 0.9 | 2.6 | 0.00 | 0.00 | 0.00 | 48 | 856.1 |
| 20260505005519 | 63 | 311 | 0.9 | 1.7 | 0.00 | 0.00 | 0.00 | 47 | 856.2 |
| 20260505004519 | 63 | 250 | 0.9 | 2.6 | 0.00 | 0.00 | 0.00 | 46 | 856.2 |
| 20260505003520 | 63 | 274 | 0.0 | 1.7 | 0.00 | 0.00 | 0.00 | 45 | 856.3 |
| 20260505002520 | 63 | 256 | 0.9 | 4.3 | 0.00 | 0.00 | 0.00 | 45 | 856.3 |
| 20260505001557 | 64 | 251 | 0.9 | 2.6 | 0.00 | 0.00 | 0.00 | 45 | 856.3 |
| 20260505000517 | 64 | 241 | 1.7 | 3.5 | 0.00 | 0.00 | 0.00 | 44 | 856.3 |
| 20260504235520 | 64 | 253 | 1.7 | 3.5 | 0.00 | 0.00 | 0.00 | 44 | 856.3 |
| 20260504234520 | 65 | 253 | 0.9 | 2.6 | 0.00 | 0.00 | 0.00 | 43 | 856.4 |
| 20260504233517 | 66 | 214 | 1.7 | 6.1 | 0.00 | 0.00 | 0.00 | 43 | 856.4 |
| 20260504232518 | 66 | 208 | 0.9 | 2.6 | 0.00 | 0.00 | 0.00 | 42 | 856.5 |
| 20260504231538 | 67 | 210 | 0.9 | 4.3 | 0.00 | 0.00 | 0.00 | 41 | 856.5 |
| 20260504230522 | 67 | 228 | 2.6 | 5.2 | 0.00 | 0.00 | 0.00 | 41 | 856.5 |
| 20260504225519 | 68 | 225 | 2.6 | 7.8 | 0.00 | 0.00 | 0.00 | 40 | 856.6 |
| 20260504224518 | 69 | 249 | 1.7 | 5.2 | 0.00 | 0.00 | 0.00 | 39 | 856.7 |
| 20260504223519 | 69 | 234 | 1.7 | 6.1 | 0.00 | 0.00 | 0.00 | 40 | 856.7 |
| 20260504222519 | 69 | 230 | 0.9 | 3.5 | 0.00 | 0.00 | 0.00 | 40 | 856.7 |
| 20260504221539 | 70 | 225 | 0.9 | 5.2 | 0.00 | 0.00 | 0.00 | 39 | 856.8 |
| 20260504220520 | 70 | 240 | 1.7 | 6.1 | 0.00 | 0.00 | 0.00 | 40 | 856.8 |
| 20260504215539 | 70 | 229 | 1.7 | 5.2 | 0.00 | 0.00 | 0.00 | 40 | 856.8 |
| 20260504214519 | 69 | 141 | 0.9 | 3.5 | 0.00 | 0.00 | 0.00 | 41 | 856.7 |
| 20260504213517 | 70 | 226 | 1.7 | 7.0 | 0.00 | 0.00 | 0.00 | 40 | 856.8 |
| 20260504212540 | 70 | 236 | 1.7 | 8.7 | 0.00 | 0.00 | 0.00 | 40 | 856.8 |
| 20260504211519 | 69 | 226 | 1.7 | 6.1 | 0.00 | 0.00 | 0.00 | 41 | 856.8 |
| 20260504210541 | 69 | 227 | 2.6 | 7.0 | 0.00 | 0.00 | 0.00 | 41 | 856.8 |
| 20260504205517 | 69 | 221 | 2.6 | 7.0 | 0.00 | 0.00 | 0.00 | 41 | 856.7 |
| 20260504204537 | 69 | 220 | 2.6 | 7.8 | 0.00 | 0.00 | 0.00 | 41 | 856.8 |
| 20260504203521 | 69 | 244 | 2.6 | 7.0 | 0.00 | 0.00 | 0.00 | 42 | 856.7 |
| 20260504202518 | 69 | 245 | 3.5 | 8.7 | 0.00 | 0.00 | 0.00 | 41 | 856.7 |
| 20260504201518 | 69 | 261 | 1.7 | 7.0 | 0.00 | 0.00 | 0.00 | 41 | 856.7 |
| 20260504200538 | 69 | 249 | 2.6 | 7.0 | 0.00 | 0.00 | 0.00 | 42 | 856.8 |
| 20260504195539 | 68 | 213 | 2.6 | 7.0 | 0.00 | 0.00 | 0.00 | 42 | 856.7 |
| 20260504194538 | 68 | 229 | 1.7 | 6.1 | 0.00 | 0.00 | 0.00 | 42 | 856.7 |
| 20260504193519 | 69 | 273 | 2.6 | 7.0 | 0.00 | 0.00 | 0.00 | 41 | 856.8 |
| 20260504192519 | 69 | 224 | 2.6 | 8.7 | 0.00 | 0.00 | 0.00 | 42 | 856.8 |
| 20260504191519 | 67 | 210 | 2.6 | 8.7 | 0.00 | 0.00 | 0.00 | 43 | 856.7 |
| 20260504190519 | 68 | 230 | 3.5 | 7.0 | 0.00 | 0.00 | 0.00 | 41 | 856.6 |
| 20260504185520 | 69 | 220 | 2.6 | 6.1 | 0.00 | 0.00 | 0.00 | 41 | 856.7 |
| 20260504184520 | 68 | 214 | 3.5 | 10.4 | 0.00 | 0.00 | 0.00 | 42 | 856.7 |
| 20260504183520 | 68 | 218 | 3.5 | 10.4 | 0.00 | 0.00 | 0.00 | 42 | 856.7 |
| 20260504182517 | 67 | 218 | 3.5 | 7.8 | 0.00 | 0.00 | 0.00 | 43 | 856.7 |
| 20260504181517 | 66 | 217 | 3.5 | 8.7 | 0.00 | 0.00 | 0.00 | 44 | 856.6 |
| 20260504180540 | 66 | 239 | 3.5 | 9.6 | 0.00 | 0.00 | 0.00 | 44 | 856.5 |
| 20260504175518 | 66 | 213 | 3.5 | 7.8 | 0.00 | 0.00 | 0.00 | 43 | 856.5 |
| 20260504174538 | 66 | 240 | 3.5 | 8.7 | 0.00 | 0.00 | 0.00 | 43 | 856.6 |
| 20260504173518 | 65 | 225 | 2.6 | 7.0 | 0.00 | 0.00 | 0.00 | 43 | 856.5 |
| 20260504172518 | 64 | 235 | 3.5 | 7.0 | 0.00 | 0.00 | 0.00 | 45 | 856.5 |
| 20260504171518 | 63 | 233 | 2.6 | 7.0 | 0.00 | 0.00 | 0.00 | 46 | 856.4 |
| 20260504170518 | 64 | 208 | 2.6 | 8.7 | 0.00 | 0.00 | 0.00 | 45 | 856.4 |
| 20260504150517 | 61 | 252 | 3.5 | 7.8 | 0.00 | 0.00 | 0.00 | 48 | 856.2 |
| 20260504140519 | 60 | 245 | 2.6 | 9.6 | 0.00 | 0.00 | 0.00 | 48 | 856.2 |
| 20260504130520 | 56 | 221 | 3.5 | 7.8 | 0.00 | 0.00 | 0.00 | 49 | 855.9 |
| 20260504110519 | 48 | 76 | 1.7 | 3.5 | 0.00 | 0.00 | 0.00 | 67 | 855.3 |
| 20260504100523 | 40 | 14 | 0.9 | 1.7 | 0.00 | 0.00 | 0.00 | 79 | 854.8 |